Location: Chuathbaluk
(61.5726°N, 159.2454°W)
Time: 03:51:25
(UTC+00:00)

Transit 2A - Pass Details

Date: 26 November 2020
Orbit: 599 x 960 km, 66.7° (Epoch: 26 January)

Event Time Altitude Azimuth Distance (km) Brightness Sun altitude
Rises 03:45:55 0° 167° (SSE) 3,620 9.6 -14.0°
Reaches altitude 10° 03:49:18 10° 150° (SSE) 2,651 8.7 -14.3°
Maximum altitude 03:53:17 18° 109° (ESE) 2,082 7.8 -14.8°
Enters shadow 03:54:01 18° 100° (E) 2,094 7.7 -14.9°
Drops below altitude 10° 03:57:08 10° 69° (ENE) 2,548 - -15.2°
Sets 04:00:18 0° 51° (NE) 3,426 - -15.6°
